Petersburg, WV

11:41 PM EDT on May 22, 2017 (GMT -0400)
Petersburg

Weather History for KW99 - May, 2014

Change the Weather History Date:

Friday, May 2, 2014

  Actual Average (KEKN) Record (KEKN)
Temperature  
Mean Temperature 58 °F -  
Max Temperature 68 °F 66 °F 85 °F (1910)
Min Temperature 47 °F 39 °F 22 °F (1978)
Degree Days  
Heating Degree Days 8    
Growing Degree Days 8 (Base 50)    
Moisture  
Dew Point 43 °F    
Average Humidity 58    
Maximum Humidity 84    
Minimum Humidity 37    
Precipitation  
Precipitation 0.00 in - - ()
Sea Level Pressure  
Sea Level Pressure 29.87 in    
Wind  
Wind Speed 4 mph (WNW)    
Max Wind Speed 20 mph    
Max Gust Speed 24 mph    
Visibility 10 miles    
Events      
Averages and records for this station are not official NWS values.
T = Trace of Precipitation, MM = Missing Value Source: NWS Daily Summary

Daily Weather History Graph

Daily Weather History Graph

Search for Another Location

Airport or City:

Trip Planner

Search our weather history database for the weather conditions in past years. The results will help you decide how hot, cold, wet, or windy it might be!

Date:

Astronomy

May. 02, 2014 Rise Set
Actual Time 6:17 AM EDT 8:10 PM EDT
Civil Twilight 5:48 AM EDT 8:39 PM EDT
Nautical Twilight 5:13 AM EDT 9:14 PM EDT
Astronomical Twilight 4:35 AM EDT 9:52 PM EDT
Moon 8:53 AM EDT (5/2) 11:30 PM EDT (5/2)
Length of Visible Light 14h 50m
Length of Day
13h 52m
Waxing Crescent, 12% of the Moon is Illuminated
May 2
Waxing Crescent
May 6
First Quarter
May 14
Full
May 21
Last Quarter
May 28
New

Hourly Weather History & Observations

Time (EDT) Temp. Dew Point Humidity Pressure Visibility Wind Dir Wind Speed Gust Speed Precip Events Conditions
12:15 AM 52.3 °F 43.3 °F 71% 29.87 in 10.0 mi Calm Calm - N/A   Clear
12:35 AM 50.5 °F 44.1 °F 78% 29.87 in 10.0 mi Calm Calm - N/A   Clear
12:50 AM 51.6 °F 44.8 °F 77% 29.87 in 10.0 mi Calm Calm - N/A   Clear
1:15 AM 50.0 °F 44.1 °F 80% 29.87 in 10.0 mi Calm Calm - N/A   Clear
1:55 AM 47.8 °F 43.2 °F 84% 29.87 in 10.0 mi Calm Calm - N/A   Clear
2:15 AM 49.5 °F 43.2 °F 79% 29.87 in 10.0 mi Calm Calm - N/A   Scattered Clouds
2:35 AM 48.2 °F 43.0 °F 82% 29.86 in 10.0 mi Calm Calm - N/A   Overcast
2:55 AM 48.4 °F 43.3 °F 83% 29.86 in 10.0 mi Calm Calm - N/A   Overcast
3:15 AM 49.6 °F 42.8 °F 77% 29.85 in 10.0 mi Calm Calm - N/A   Mostly Cloudy
3:35 AM 48.4 °F 42.6 °F 80% 29.86 in 10.0 mi West 3.5 mph - N/A   Scattered Clouds
3:55 AM 48.6 °F 43.3 °F 82% 29.86 in 10.0 mi Calm Calm - N/A   Mostly Cloudy
4:15 AM 48.7 °F 43.3 °F 82% 29.86 in 10.0 mi Calm Calm - N/A   Mostly Cloudy
4:35 AM 50.7 °F 43.3 °F 76% 29.85 in 10.0 mi West 4.6 mph - N/A   Scattered Clouds
4:55 AM 51.3 °F 42.6 °F 72% 29.85 in 10.0 mi Calm Calm - N/A   Scattered Clouds
5:10 AM 52.3 °F 42.4 °F 69% 29.85 in 10.0 mi Calm Calm - N/A   Scattered Clouds
5:35 AM 53.1 °F 42.3 °F 67% 29.85 in 10.0 mi ENE 4.6 mph - N/A   Scattered Clouds
5:55 AM 52.3 °F 42.3 °F 69% 29.85 in 10.0 mi ENE 3.5 mph - N/A   Mostly Cloudy
6:15 AM 51.3 °F 42.3 °F 71% 29.85 in 10.0 mi North 3.5 mph - N/A   Mostly Cloudy
6:35 AM 50.7 °F 42.6 °F 74% 29.86 in 10.0 mi ENE 3.5 mph - N/A   Overcast
6:55 AM 49.6 °F 42.8 °F 77% 29.87 in 10.0 mi Calm Calm - N/A   Overcast
7:15 AM 51.3 °F 43.7 °F 75% 29.87 in 10.0 mi Calm Calm - N/A   Overcast
7:30 AM 54.1 °F 43.0 °F 66% 29.87 in 10.0 mi East 4.6 mph - N/A   Overcast
7:55 AM 56.8 °F 42.4 °F 59% 29.88 in 10.0 mi Calm Calm - N/A   Overcast
8:10 AM 58.3 °F 42.3 °F 55% 29.87 in 10.0 mi Calm Calm - N/A   Overcast
8:35 AM 58.6 °F 41.5 °F 53% 29.87 in 10.0 mi Calm Calm - N/A   Overcast
8:50 AM 58.8 °F 41.7 °F 53% 29.88 in 10.0 mi WSW 8.1 mph - N/A   Overcast
9:15 AM 59.2 °F 42.4 °F 54% 29.88 in 10.0 mi WSW 12.7 mph 18.4 mph N/A   Overcast
9:35 AM 60.8 °F 43.0 °F 52% 29.88 in 10.0 mi West 15.0 mph 20.7 mph N/A   Overcast
9:55 AM 61.3 °F 42.4 °F 50% 29.88 in 10.0 mi West 9.2 mph 18.4 mph N/A   Overcast
10:15 AM 63.0 °F 42.6 °F 47% 29.88 in 10.0 mi WSW 11.5 mph - N/A   Overcast
10:35 AM 62.2 °F 42.1 °F 48% 29.88 in 10.0 mi West 13.8 mph 20.7 mph N/A   Overcast
10:55 AM 63.0 °F 41.4 °F 45% 29.89 in 10.0 mi WSW 12.7 mph - N/A   Overcast
11:15 AM 62.8 °F 42.3 °F 47% 29.88 in 10.0 mi West 9.2 mph 19.6 mph N/A   Overcast
11:35 AM 63.3 °F 42.1 °F 46% 29.88 in 10.0 mi West 11.5 mph 19.6 mph N/A   Mostly Cloudy
11:55 AM 64.8 °F 43.0 °F 45% 29.89 in 10.0 mi WSW 13.8 mph 23.0 mph N/A   Scattered Clouds
12:15 PM 64.8 °F 42.3 °F 44% 29.88 in 10.0 mi West 15.0 mph 20.7 mph N/A   Mostly Cloudy
12:35 PM 65.8 °F 44.6 °F 46% 29.87 in 10.0 mi West 13.8 mph 17.3 mph N/A   Mostly Cloudy
12:55 PM 65.7 °F 43.2 °F 44% 29.88 in 10.0 mi West 15.0 mph 23.0 mph N/A   Scattered Clouds
1:15 PM 64.9 °F 42.4 °F 44% 29.87 in 10.0 mi WNW 12.7 mph 19.6 mph N/A   Mostly Cloudy
1:35 PM 65.5 °F 42.8 °F 44% 29.87 in 10.0 mi West 6.9 mph 20.7 mph N/A   Mostly Cloudy
1:55 PM 66.0 °F 41.7 °F 41% 29.87 in 10.0 mi WNW 12.7 mph 21.9 mph N/A   Mostly Cloudy
2:15 PM 66.0 °F 41.0 °F 40% 29.86 in 10.0 mi West 13.8 mph 17.3 mph N/A   Mostly Cloudy
2:35 PM 66.7 °F 41.9 °F 40% 29.86 in 10.0 mi West 13.8 mph 20.7 mph N/A   Mostly Cloudy
2:55 PM 67.1 °F 41.5 °F 39% 29.86 in 10.0 mi WNW 10.4 mph - N/A   Mostly Cloudy
3:10 PM 67.3 °F 41.4 °F 39% 29.85 in 10.0 mi WNW 16.1 mph 21.9 mph N/A   Mostly Cloudy
3:35 PM 68.2 °F 40.8 °F 37% 29.84 in 10.0 mi West 19.6 mph 23.0 mph N/A   Scattered Clouds
3:55 PM 66.6 °F 41.2 °F 40% 29.85 in 10.0 mi West 13.8 mph 17.3 mph N/A   Scattered Clouds
4:15 PM 67.3 °F 41.0 °F 38% 29.84 in 10.0 mi West 17.3 mph - N/A   Scattered Clouds
4:35 PM 67.1 °F 40.8 °F 38% 29.85 in 10.0 mi West 12.7 mph 19.6 mph N/A   Clear
4:55 PM 67.8 °F 41.2 °F 38% 29.85 in 10.0 mi WNW 16.1 mph - N/A   Clear
5:15 PM 66.7 °F 41.7 °F 40% 29.85 in 10.0 mi West 15.0 mph 24.2 mph N/A   Clear
5:35 PM 67.6 °F 42.1 °F 39% 29.86 in 10.0 mi WNW 12.7 mph - N/A   Clear
5:55 PM 67.5 °F 41.5 °F 39% 29.86 in 10.0 mi West 10.4 mph 13.8 mph N/A   Scattered Clouds
6:10 PM 67.1 °F 41.9 °F 40% 29.86 in 10.0 mi WNW 13.8 mph 17.3 mph N/A   Scattered Clouds
6:35 PM 64.8 °F 41.0 °F 42% 29.86 in 10.0 mi WNW 12.7 mph 18.4 mph N/A   Scattered Clouds
6:55 PM 63.9 °F 40.6 °F 43% 29.87 in 10.0 mi NW 5.8 mph 9.2 mph N/A   Scattered Clouds
7:15 PM 64.0 °F 40.1 °F 41% 29.88 in 10.0 mi NW 5.8 mph - N/A   Mostly Cloudy
7:35 PM 62.8 °F 41.2 °F 45% 29.88 in 10.0 mi NW 5.8 mph - N/A   Mostly Cloudy
7:50 PM 62.2 °F 41.4 °F 46% 29.89 in 10.0 mi NW 4.6 mph - N/A   Mostly Cloudy
8:15 PM 61.2 °F 42.8 °F 51% 29.89 in 10.0 mi Calm Calm - N/A   Mostly Cloudy
8:35 PM 59.7 °F 42.1 °F 52% 29.89 in 10.0 mi Calm Calm - N/A   Mostly Cloudy
8:55 PM 57.6 °F 43.2 °F 59% 29.89 in 10.0 mi Calm Calm - N/A   Scattered Clouds
9:15 PM 58.6 °F 42.3 °F 55% 29.90 in 10.0 mi Calm Calm - N/A   Scattered Clouds
9:35 PM 53.6 °F 43.9 °F 70% 29.90 in 10.0 mi WNW 6.9 mph - N/A   Scattered Clouds
9:55 PM 52.9 °F 43.9 °F 71% 29.90 in 10.0 mi Calm Calm - N/A   Clear
10:15 PM 52.5 °F 44.1 °F 73% 29.91 in 10.0 mi Calm Calm - N/A   Clear
10:30 PM 52.7 °F 45.7 °F 77% 29.90 in 10.0 mi Calm Calm - N/A   Clear
10:55 PM 52.2 °F 45.3 °F 78% 29.90 in 10.0 mi Calm Calm - N/A   Clear
11:10 PM 50.2 °F 44.2 °F 80% 29.90 in 10.0 mi Calm Calm - N/A   Clear
11:35 PM 50.2 °F 44.1 °F 79% 29.91 in 10.0 mi Calm Calm - N/A   Clear
11:55 PM 49.1 °F 44.4 °F 84% 29.91 in 10.0 mi Calm Calm - N/A   Clear